User: anonymous   Login
Location: Unspecified
(0.0000°N, 0.0000°E)
Time: 18:09:38
(UTC+00:00)
Language:

STARLINK-31212 - Orbit

View from above orbital plane
View from above orbital plane
View from above satellite
View from above satellite

Ground track
Ground track

The orbit is defined by the following mean orbital elements,

1 58875U          26145.43449895 +.00000000 +00000-0 +19208-4 0 00004
2 58875  43.0008 175.1550 0001258 273.9491  86.1217 15.27577339    09
Epoch (UTC): 25 May 2026 10:25:40
Eccentricity: 0.0001258
inclination: 43.0008°
perigee height: 482 km
apogee height: 484 km
right ascension of ascending node: 175.1550°
argument of perigee: 273.9491°
revolutions per day: 15.27577339
mean anomaly at epoch: 86.1217°

The dashed part of the orbit path shows where the satellite is in the earth's shadow,  

DLR